#timestamp,LO_Frequency,Hit,StdDev 
1512057615.7,286047006.4,N
1512057635.5,286047008.1,N
1512057655.3,286047012.5,Y
1512057675.2,286047006.8,P
1512057695.0,286047010.6,P
1512057695.9,286047010.6,P
1512057715.8,286047010.0,Y
1512057735.6,286047003.5,P
1512057755.4,286047007.6,P
1512057775.2,286047008.6,P
1512057795.1,286047008.2,Y
1512057796.0,286047008.2,P
1512057815.8,286047001.1,N
1512057835.6,286047001.9,N
1512057855.5,286047000.2,N
1512057875.3,286046999.2,N
1512057895.1,286046998.7,N
1512057915.9,286047003.9,N
1512057935.7,286047003.6,N
1512057955.5,286047000.3,N
1512057975.4,286047003.9,N
1512057995.2,286047005.8,N
1512058015.0,286047001.4,N
1512058015.9,286047001.4,N
1512058035.8,286047003.0,N
1512058055.6,286047006.2,N
1512058075.4,286047009.8,Y
1512058095.3,286047006.3,P
1512058115.1,286047007.2,P
1512058116.0,286047007.2,P
1512058135.8,286047006.2,Y
1512058155.7,286047000.9,P
1512058175.5,286047001.0,N
1512058195.3,286046999.9,N
1512058215.2,286047001.1,N
1512058235.9,286047001.7,N
1512058255.7,286047005.7,N
1512058275.5,286047003.8,N
1512058295.4,286047004.4,N
1512058315.2,286047005.9,N
1512058335.0,286047006.0,N
1512058335.9,286047006.0,N
1512058355.8,286047003.5,N
1512058375.6,286047002.8,N
1512058395.4,286047000.0,N
1512058415.3,286046998.3,N
1512058435.1,286046997.6,N
1512058436.0,286046997.6,N
1512058455.8,286046996.8,N
1512058475.7,286046995.2,N
1512058495.5,286046993.5,N
1512058515.3,286046992.2,N
1512058535.2,286046994.8,N
1512058555.9,286046993.4,N
1512058575.7,286046996.2,N
1512058595.5,286046994.6,N
1512058615.4,286046991.9,N
1512058635.2,286046987.9,N
1512058655.0,286046984.3,Y
1512058656.0,286046984.3,P
1512058675.8,286046985.7,N
1512058695.6,286046983.4,N
1512058715.4,286046984.7,N
1512058735.3,286046980.9,Y
1512058755.1,286046993.5,P
1512058775.8,286046995.5,N
1512058795.7,286046995.9,N
1512058815.5,286046994.7,N
1512058835.3,286046990.5,Y
1512058855.2,286046998.2,P
1512058875.0,286046999.3,N
1512058875.9,286046999.3,N
1512058895.7,286046999.5,N
1512058915.6,286046996.6,N
1512058935.4,286046996.6,N
1512058955.2,286047001.4,N
1512058975.1,286047003.9,N
1512058976.0,286047003.9,N
1512058995.8,286047000.5,N
1512059015.6,286046998.8,N
1512059035.5,286046997.7,N
1512059055.3,286046996.1,N
1512059075.1,286046993.4,N
1512059095.9,286046994.0,N
1512059115.7,286046992.5,N
1512059135.5,286046992.9,N
1512059155.3,286046991.9,N
1512059175.2,286046999.2,N
1512059195.0,286046996.8,N
1512059195.9,286046996.8,N
1512059215.7,286046995.2,N
1512059235.6,286046996.8,N
1512059255.4,286046998.7,N
1512059275.2,286047001.0,N
1512059295.1,286047001.5,N
1512059296.0,286047001.5,N
1512059315.8,286047003.6,N
1512059335.6,286047005.1,N
1512059355.5,286047006.4,N
1512059375.3,286047006.8,N
1512059395.1,286047003.7,N
1512059415.9,286047003.9,N
1512059435.7,286047003.5,N
1512059455.5,286047003.5,N
1512059475.3,286047002.6,N
1512059495.2,286047000.7,N
1512059515.0,286046998.1,N
1512059515.9,286046998.1,N
1512059535.7,286047000.4,N
1512059555.6,286046998.4,N
1512059575.4,286046999.6,N
1512059595.2,286047001.1,N
1512059615.1,286046996.9,N
1512059616.0,286046996.9,N
1512059635.8,286046999.3,N
1512059655.6,286046997.8,N
1512059675.5,286046997.2,N
1512059695.3,286046995.4,N
1512059715.1,286046998.0,N
1512059735.9,286046999.3,N
1512059755.7,286047000.5,N
1512059775.5,286047004.4,N
1512059795.4,286047002.5,N
1512059815.2,286047003.8,N
1512059835.0,286047003.8,N
1512059835.9,286047003.8,N
1512059855.8,286047004.4,N
1512059875.6,286047004.9,N
1512059895.4,286047007.6,N
1512059915.2,286047007.0,N
1512059935.1,286047007.6,N
1512059936.0,286047007.6,N
1512059955.8,286047006.3,N
1512059975.6,286047008.3,N
1512059995.5,286047008.3,N
1512060015.3,286047006.3,N
1512060035.1,286047007.6,N
1512060055.9,286047004.7,N
1512060075.7,286047007.9,N
1512060095.5,286047010.1,N
1512060115.4,286047006.6,N
1512060135.2,286047007.5,N
1512060155.0,286047003.8,N
1512060155.9,286047003.8,N
1512060175.8,286047003.2,N
1512060195.6,286047001.6,N
1512060215.4,286047003.2,N
1512060235.3,286047008.5,N
1512060255.1,286047010.4,Y
1512060256.0,286047010.4,P
1512060275.8,286047004.0,N
1512060295.7,286047003.5,N
1512060315.5,286047002.4,N
1512060335.3,286047004.0,N
1512060355.1,286047001.8,N
1512060375.9,286047003.9,N
1512060395.7,286047004.7,N
1512060415.5,286047007.4,Y
1512060435.4,286047000.1,P
1512060455.2,286047000.3,N
1512060475.0,286046998.5,N
1512060475.9,286046998.5,N
1512060495.8,286046999.3,N
1512060515.6,286046995.1,N
1512060535.4,286046996.2,N
1512060555.3,286046994.0,N
1512060575.1,286046998.0,N
1512060595.8,286046996.5,N
1512060615.7,286047000.0,N
1512060635.5,286047004.4,N
1512060655.3,286047004.4,N
1512060675.2,286047003.3,N
1512060695.9,286047000.3,N
1512060715.7,286046998.8,N
1512060735.6,286046999.1,N
1512060755.4,286046996.9,N
1512060775.2,286046999.5,N
1512060795.0,286047000.9,N
1512060796.0,286047000.9,N
1512060815.8,286046996.5,N
1512060835.6,286046996.4,N
1512060855.4,286046994.0,N
1512060875.3,286046991.5,N
1512060895.1,286046989.4,Y
1512060915.8,286046994.8,P
1512060935.7,286046992.8,P
1512060955.5,286046993.2,N
1512060975.3,286046994.6,N
1512060995.2,286046996.1,N
1512061015.9,286046998.9,N
1512061035.7,286046998.4,N
1512061055.6,286047002.4,N
1512061075.4,286047004.0,N
1512061095.2,286047009.0,N
1512061115.1,286047012.1,N
1512061116.0,286047012.1,N
1512061135.8,286047013.2,N
1512061155.6,286047013.6,N
1512061175.4,286047015.3,N
1512061195.3,286047012.6,N
